Bydgoszcz Ignacy Jan Pade, Poland

2:19 AM CEST on July 21, 2018 (GMT +0200)
Szwederowo

Weather History for EPBY - July, 2018

Change the Weather History Date:

Thursday, July 12, 2018

  Actual Average Record
Temperature  
Mean Temperature 65 °F -  
Max Temperature 71 °F - - ()
Min Temperature 59 °F - - ()
Growing Degree Days 15 (Base 50)    
Moisture  
Dew Point 58 °F    
Average Humidity 84    
Maximum Humidity 100    
Minimum Humidity 57    
Precipitation  
Precipitation 0.00 in - - ()
Sea Level Pressure  
Sea Level Pressure 29.87 in    
Wind  
Wind Speed 7 mph ()    
Max Wind Speed 13 mph    
Max Gust Speed -    
Visibility 5.9 miles    
Events Rain , Thunderstorm    
T = Trace of Precipitation, MM = Missing Value Source: Averaged Metar Reports

Daily Weather History Graph

Daily Weather History Graph

Search for Another Location

Airport or City:

Astronomy

Jul. 12, 2018 Rise Set
Actual Time 4:36 AM CEST 9:10 PM CEST
Civil Twilight 3:47 AM CEST 9:58 PM CEST
Nautical Twilight 2:30 AM CEST 11:14 PM CEST
Astronomical Twilight 1:26 AM CEST 12:21 AM CEST
Moon 3:50 AM CEST (7/12) 8:31 PM CEST (7/12)
Length of Visible Light 18h 11m
Length of Day
16h 33m
Waning Crescent, 1% of the Moon is Illuminated
Jul 12
Waning Crescent
Jul 13
New
Jul 19
First Quarter
Jul 27
Full
Aug 4
Last Quarter

Hourly Weather History & Observations

Time (CEST) Temp. Dew Point Humidity Pressure Visibility Wind Dir Wind Speed Gust Speed Precip Events Conditions
12:00 AM 62.6 °F 62.6 °F 100% 29.89 in 3.7 mi ENE 9.2 mph - N/A Rain Light Rain Showers
12:30 AM 62.6 °F 62.6 °F 100% 29.89 in 3.7 mi East 9.2 mph - N/A Rain Light Rain Showers
2:00 AM 62.6 °F 60.8 °F 94% 29.86 in - East 8.1 mph - N/A Rain Rain Showers
3:00 AM 62.6 °F 60.8 °F 94% 29.86 in - ESE 6.9 mph - N/A Rain Rain Showers
3:30 AM 60.8 °F 59.0 °F 94% 29.86 in 6.2 mi South 9.2 mph - N/A Rain Light Rain Showers
4:00 AM 59.0 °F 59.0 °F 100% 29.83 in 5.6 mi SSW 6.9 mph - N/A   Mostly Cloudy
4:30 AM 59.0 °F 59.0 °F 100% 29.86 in 6.2 mi SSW 9.2 mph - N/A   Overcast
5:30 AM 59.0 °F 59.0 °F 100% 29.86 in 3.7 mi SSW 9.2 mph - N/A   Overcast
6:30 AM 59.0 °F 57.2 °F 94% 29.86 in 6.2 mi South 6.9 mph - N/A   Mostly Cloudy
8:00 AM 60.8 °F 59.0 °F 94% 29.86 in 6.2 mi SSW 10.4 mph - N/A   Mostly Cloudy
8:30 AM 62.6 °F 59.0 °F 88% 29.86 in 6.2 mi SSW 8.1 mph - N/A   Mostly Cloudy
9:00 AM 62.6 °F 57.2 °F 82% 29.86 in 6.2 mi SW 9.2 mph - N/A   Mostly Cloudy
9:30 AM 64.4 °F 55.4 °F 73% 29.86 in 6.2 mi SW 10.4 mph - N/A   Scattered Clouds
10:30 AM 66.2 °F 57.2 °F 73% 29.86 in 6.2 mi SSW 9.2 mph - N/A   Scattered Clouds
11:30 AM 68.0 °F 53.6 °F 60% 29.89 in 6.2 mi Variable 5.8 mph - N/A   Mostly Cloudy
1:00 PM 71.6 °F 55.4 °F 57% 29.86 in 6.2 mi SW 6.9 mph - N/A   Mostly Cloudy
1:30 PM 69.8 °F 55.4 °F 60% 29.86 in 6.2 mi SSW 9.2 mph - N/A   Partly Cloudy
3:00 PM 69.8 °F 55.4 °F 60% 29.86 in 6.2 mi West 8.1 mph - N/A   Mostly Cloudy
3:30 PM 69.8 °F 55.4 °F 60% 29.86 in 6.2 mi Variable 4.6 mph - N/A   Mostly Cloudy
4:00 PM 71.6 °F 57.2 °F 60% 29.86 in 6.2 mi Variable 4.6 mph - N/A Rain Light Rain Showers
4:30 PM 68.0 °F 57.2 °F 68% 29.86 in 6.2 mi SW 11.5 mph - N/A Rain , Thunderstorm Light Thunderstorms and Rain
5:00 PM 62.6 °F 57.2 °F 82% 29.89 in 6.2 mi Variable 4.6 mph - N/A Rain , Thunderstorm Thunderstorms and Rain
5:30 PM 62.6 °F 55.4 °F 77% 29.89 in 6.2 mi NNW 9.2 mph - N/A Rain , Thunderstorm Light Thunderstorms and Rain
6:00 PM 59.0 °F 57.2 °F 94% 29.89 in 6.2 mi SSW 12.7 mph - N/A Rain , Thunderstorm Light Thunderstorms and Rain
6:30 PM 59.0 °F 55.4 °F 88% 29.86 in 6.2 mi SSE 4.6 mph - N/A Rain Light Rain Showers
7:00 PM 60.8 °F 57.2 °F 88% 29.86 in 6.2 mi North 4.6 mph - N/A Rain Light Rain Showers
8:00 PM 62.6 °F 59.0 °F 88% 29.86 in - Variable 2.3 mph - N/A   Clear
8:30 PM 60.8 °F 59.0 °F 94% 29.86 in - Variable 2.3 mph - N/A   Clear
9:00 PM 60.8 °F 59.0 °F 94% 29.89 in - SE 3.5 mph - N/A   Clear
9:30 PM 60.8 °F 57.2 °F 88% 29.89 in - South 5.8 mph - N/A   Clear
10:00 PM 59.0 °F 57.2 °F 94% 29.89 in 6.2 mi Variable 2.3 mph - N/A   Partly Cloudy
11:00 PM 60.8 °F 59.0 °F 94% 29.89 in 6.2 mi North 3.5 mph - N/A Rain Light Rain
11:30 PM 60.8 °F 57.2 °F 88% 29.89 in 6.2 mi North 3.5 mph - N/A Rain Light Rain